�������l�o���
Date,Time,MP-1(��Sv/h),MP-2(��Sv/h),MP-3(��Sv/h),MP-4(��Sv/h),MP-5(��Sv/h),MP-6(��Sv/h),MP-7(��Sv/h),MP-8(��Sv/h),����,����(m/s),���J
2022/04/13,00:00,0.588,0.875,0.560,1.068,0.763,0.354,0.609,0.574,��쐼,1.7,��
2022/04/13,00:10,0.588,0.874,0.559,1.068,0.762,0.354,0.610,0.573,��,1.4,��
2022/04/13,00:20,0.588,0.875,0.561,1.066,0.763,0.354,0.612,0.573,�쐼,0.8,��
2022/04/13,00:30,0.590,0.875,0.560,1.070,0.762,0.354,0.611,0.574,-,CALM,��
2022/04/13,00:40,0.591,0.876,0.560,1.069,0.762,0.355,0.609,0.574,��,0.9,��
2022/04/13,00:50,0.591,0.875,0.560,1.068,0.763,0.354,0.609,0.574,��,1.2,��
2022/04/13,01:00,0.592,0.874,0.559,1.068,0.764,0.356,0.611,0.573,���k��,1.5,��
2022/04/13,01:10,0.588,0.874,0.558,1.070,0.761,0.354,0.608,0.574,���k��,1.4,��
2022/04/13,01:20,0.588,0.875,0.560,1.070,0.763,0.353,0.609,0.572,���k��,1.7,��
2022/04/13,01:30,0.589,0.878,0.558,1.068,0.764,0.355,0.611,0.572,���쓌,2.2,��
2022/04/13,01:40,0.589,0.874,0.560,1.069,0.761,0.355,0.609,0.575,��쓌,2.5,��
2022/04/13,01:50,0.589,0.876,0.562,1.069,0.764,0.353,0.608,0.574,��쓌,2.6,��
2022/04/13,02:00,0.592,0.874,0.559,1.068,0.762,0.356,0.610,0.574,��,2.8,��
2022/04/13,02:10,0.589,0.875,0.561,1.068,0.762,0.354,0.610,0.572,��,2.5,��
2022/04/13,02:20,0.589,0.874,0.559,1.068,0.761,0.354,0.609,0.574,��,2.9,��
2022/04/13,02:30,0.587,0.875,0.558,1.070,0.761,0.353,0.609,0.572,��,2.6,��
2022/04/13,02:40,0.590,0.874,0.560,1.069,0.762,0.354,0.611,0.574,��,2.8,��
2022/04/13,02:50,0.590,0.875,0.559,1.068,0.762,0.354,0.608,0.573,��,2.5,��
2022/04/13,03:00,0.589,0.874,0.559,1.071,0.761,0.353,0.609,0.574,��,3.2,��
2022/04/13,03:10,0.590,0.876,0.559,1.069,0.762,0.354,0.611,0.574,��쐼,2.0,��
2022/04/13,03:20,0.589,0.874,0.558,1.070,0.762,0.355,0.609,0.574,��,1.5,��
2022/04/13,03:30,0.590,0.876,0.559,1.069,0.764,0.355,0.611,0.574,���k��,2.0,��
2022/04/13,03:40,0.590,0.875,0.558,1.071,0.760,0.354,0.610,0.574,�k��,2.5,��
2022/04/13,03:50,0.588,0.877,0.559,1.069,0.761,0.355,0.609,0.572,�k��,2.3,��
2022/04/13,04:00,0.588,0.873,0.559,1.068,0.762,0.353,0.610,0.574,�k��,3.5,��
2022/04/13,04:10,0.589,0.874,0.559,1.067,0.760,0.354,0.610,0.572,�k��,3.3,��
2022/04/13,04:20,0.588,0.877,0.559,1.069,0.763,0.355,0.610,0.572,�k��,3.0,��
2022/04/13,04:30,0.589,0.876,0.558,1.069,0.761,0.354,0.609,0.573,���k��,2.6,��
2022/04/13,04:40,0.588,0.871,0.558,1.069,0.761,0.354,0.611,0.574,���k��,2.5,��
2022/04/13,04:50,0.587,0.876,0.559,1.068,0.762,0.354,0.609,0.575,���k��,2.0,��
2022/04/13,05:00,0.589,0.874,0.560,1.066,0.763,0.354,0.609,0.574,���k��,1.7,��
2022/04/13,05:10,0.588,0.875,0.559,1.068,0.761,0.355,0.610,0.576,���k��,1.9,��
2022/04/13,05:20,0.588,0.874,0.559,1.068,0.762,0.353,0.608,0.574,���k��,1.7,��
2022/04/13,05:30,0.588,0.874,0.560,1.068,0.763,0.354,0.609,0.573,�k��,1.4,��
2022/04/13,05:40,0.588,0.875,0.559,1.068,0.760,0.354,0.609,0.574,�k��,2.3,��
2022/04/13,05:50,0.589,0.875,0.560,1.068,0.763,0.354,0.608,0.573,�k��,2.0,��
2022/04/13,06:00,0.589,0.876,0.559,1.066,0.760,0.355,0.608,0.574,�k�k��,2.5,��
2022/04/13,06:10,0.589,0.875,0.559,1.069,0.762,0.354,0.609,0.574,�k�k��,2.0,��
2022/04/13,06:20,0.590,0.874,0.560,1.068,0.760,0.354,0.610,0.574,�k��,2.5,��
2022/04/13,06:30,0.589,0.874,0.559,1.069,0.763,0.355,0.609,0.575,�k�k��,2.0,��
2022/04/13,06:40,0.590,0.876,0.559,1.070,0.762,0.355,0.610,0.574,�k,2.3,��
2022/04/13,06:50,0.591,0.877,0.561,1.069,0.763,0.355,0.610,0.574,�k�k��,2.8,��
2022/04/13,07:00,0.589,0.877,0.561,1.072,0.763,0.355,0.610,0.574,�k,2.3,��
2022/04/13,07:10,0.589,0.875,0.560,1.069,0.762,0.353,0.612,0.574,�k,2.0,��
2022/04/13,07:20,0.590,0.873,0.559,1.072,0.763,0.352,0.611,0.574,�k,2.0,��
2022/04/13,07:30,0.591,0.873,0.560,1.071,0.762,0.353,0.611,0.574,�k,1.2,��
2022/04/13,07:40,0.590,0.874,0.560,1.071,0.763,0.352,0.611,0.575,�k,0.6,��
2022/04/13,07:50,0.590,0.874,0.560,1.069,0.763,0.352,0.611,0.575,-,CALM,��
2022/04/13,08:00,0.591,0.871,0.561,1.072,0.763,0.353,0.610,0.574,��,0.6,��
2022/04/13,08:10,0.590,0.872,0.559,1.072,0.761,0.352,0.612,0.574,��,1.1,��
2022/04/13,08:20,0.588,0.873,0.560,1.072,0.760,0.351,0.611,0.573,��쐼,1.5,��
2022/04/13,08:30,0.589,0.871,0.560,1.071,0.763,0.354,0.610,0.573,��,2.8,��
2022/04/13,08:40,0.588,0.873,0.562,1.071,0.763,0.353,0.610,0.571,��,3.4,��
2022/04/13,08:50,0.591,0.873,0.560,1.071,0.764,0.353,0.610,0.570,��,3.6,��
2022/04/13,09:00,0.588,0.872,0.560,1.074,0.764,0.353,0.610,0.570,��,3.9,��
2022/04/13,09:10,0.589,0.871,0.559,1.073,0.764,0.352,0.609,0.570,��,3.0,��
2022/04/13,09:20,0.588,0.871,0.566,1.071,0.762,0.354,0.609,0.571,��,3.5,��
2022/04/13,09:30,0.591,0.870,0.558,1.072,0.763,0.352,0.608,0.572,��쓌,3.5,��
2022/04/13,09:40,0.589,0.871,0.560,1.071,0.760,0.353,0.610,0.573,��쓌,3.0,��
2022/04/13,09:50,0.590,0.872,0.560,1.073,0.760,0.354,0.611,0.572,��쓌,2.3,��
2022/04/13,10:00,0.592,0.871,0.561,1.071,0.761,0.354,0.611,0.572,��쓌,2.2,��
2022/04/13,10:10,0.590,0.875,0.559,1.070,0.762,0.352,0.611,0.572,�쓌,2.3,��
2022/04/13,10:20,0.591,0.876,0.560,1.071,0.761,0.354,0.612,0.573,�쓌,3.8,��
2022/04/13,10:30,0.591,0.873,0.559,1.073,0.760,0.353,0.608,0.573,�쓌,3.8,��
2022/04/13,10:40,0.589,0.873,0.557,1.072,0.764,0.353,0.609,0.572,�쓌,4.6,��
2022/04/13,10:50,0.590,0.876,0.558,1.071,0.763,0.354,0.611,0.573,�쓌,4.2,��
2022/04/13,11:00,0.589,0.874,0.560,1.072,0.763,0.355,0.610,0.572,��쓌,4.9,��
2022/04/13,11:10,0.588,0.874,0.558,1.073,0.762,0.353,0.608,0.571,��쓌,4.9,��
2022/04/13,11:20,0.590,0.877,0.558,1.072,0.763,0.353,0.611,0.571,��쓌,3.8,��
2022/04/13,11:30,0.591,0.875,0.559,1.071,0.763,0.354,0.610,0.574,��쓌,5.1,��
2022/04/13,11:40,0.590,0.876,0.560,1.071,0.765,0.354,0.608,0.573,��쓌,5.4,��
2022/04/13,11:50,0.590,0.875,0.558,1.071,0.764,0.354,0.610,0.573,��쓌,6.3,��
2022/04/13,12:00,0.592,0.876,0.560,1.071,0.765,0.354,0.610,0.573,��쓌,7.5,��
2022/04/13,12:10,0.589,0.875,0.560,1.071,0.765,0.353,0.609,0.573,��쓌,8.6,��
2022/04/13,12:20,0.590,0.878,0.559,1.072,0.764,0.353,0.610,0.572,��,9.4,��
2022/04/13,12:30,0.590,0.877,0.560,1.072,0.765,0.351,0.609,0.571,��,9.9,��
2022/04/13,12:40,0.590,0.877,0.559,1.071,0.764,0.353,0.610,0.573,��,9.8,��
2022/04/13,12:50,0.589,0.878,0.560,1.071,0.765,0.353,0.611,0.570,��,8.7,��
2022/04/13,13:00,0.592,0.876,0.561,1.071,0.765,0.352,0.610,0.572,��,9.1,��
2022/04/13,13:10,0.588,0.877,0.560,1.070,0.763,0.355,0.611,0.571,��,8.1,��
2022/04/13,13:20,0.590,0.873,0.561,1.075,0.765,0.353,0.610,0.573,��,7.0,��
2022/04/13,13:30,0.589,0.875,0.560,1.073,0.764,0.353,0.612,0.572,��,7.3,��
2022/04/13,13:40,0.591,0.873,0.561,1.073,0.767,0.353,0.612,0.571,��,7.1,��
2022/04/13,13:50,0.591,0.875,0.561,1.073,0.766,0.353,0.611,0.573,��,7.6,��
2022/04/13,14:00,0.590,0.876,0.560,1.071,0.763,0.355,0.611,0.572,��,7.6,��
2022/04/13,14:10,0.591,0.874,0.559,1.074,0.764,0.354,0.612,0.572,��,7.5,��
2022/04/13,14:20,0.590,0.876,0.560,1.072,0.764,0.355,0.612,0.573,��,7.7,��
2022/04/13,14:30,0.590,0.876,0.560,1.072,0.766,0.353,0.611,0.573,��,6.7,��
2022/04/13,14:40,0.591,0.876,0.559,1.070,0.764,0.353,0.610,0.572,��,6.7,��
2022/04/13,14:50,0.591,0.876,0.561,1.071,0.765,0.353,0.612,0.573,��,6.5,��
2022/04/13,15:00,0.592,0.878,0.559,1.072,0.764,0.354,0.614,0.573,��,6.6,��
2022/04/13,15:10,0.592,0.875,0.560,1.072,0.766,0.353,0.613,0.573,��,6.1,��
2022/04/13,15:20,0.591,0.874,0.560,1.072,0.766,0.353,0.611,0.574,��쓌,6.3,��
2022/04/13,15:30,0.589,0.876,0.559,1.071,0.764,0.353,0.611,0.574,��쓌,7.5,��
2022/04/13,15:40,0.590,0.875,0.558,1.070,0.764,0.354,0.612,0.574,��쓌,7.5,��
2022/04/13,15:50,0.589,0.876,0.560,1.071,0.764,0.352,0.613,0.572,��쓌,7.4,��
2022/04/13,16:00,0.590,0.876,0.559,1.072,0.765,0.352,0.611,0.571,��쓌,7.6,��
2022/04/13,16:10,0.591,0.878,0.559,1.071,0.763,0.352,0.610,0.572,��쓌,6.9,��
2022/04/13,16:20,0.591,0.877,0.560,1.070,0.765,0.353,0.611,0.572,��쓌,7.1,��
2022/04/13,16:30,0.592,0.876,0.559,1.071,0.763,0.354,0.610,0.572,��쓌,6.7,��
2022/04/13,16:40,0.590,0.877,0.558,1.071,0.763,0.354,0.611,0.574,��쓌,6.2,��
2022/04/13,16:50,0.588,0.878,0.559,1.071,0.763,0.355,0.610,0.571,��쓌,5.3,��
2022/04/13,17:00,0.587,0.877,0.560,1.074,0.765,0.354,0.610,0.573,��쓌,5.9,��
2022/04/13,17:10,0.589,0.878,0.559,1.074,0.765,0.354,0.610,0.572,��쓌,5.7,��
2022/04/13,17:20,0.589,0.877,0.558,1.073,0.763,0.353,0.609,0.573,��쓌,5.6,��
2022/04/13,17:30,0.590,0.874,0.558,1.075,0.764,0.354,0.611,0.572,��,5.3,��
2022/04/13,17:40,0.590,0.877,0.558,1.075,0.763,0.353,0.609,0.573,��쓌,5.2,��
2022/04/13,17:50,0.589,0.876,0.560,1.073,0.764,0.353,0.610,0.574,��쓌,4.4,��
2022/04/13,18:00,0.590,0.878,0.559,1.075,0.764,0.352,0.608,0.574,��쓌,4.7,��
2022/04/13,18:10,0.590,0.879,0.560,1.071,0.763,0.354,0.610,0.576,��,2.6,��
2022/04/13,18:20,0.589,0.880,0.560,1.073,0.764,0.352,0.609,0.572,�k�k��,7.4,��
2022/04/13,18:30,0.588,0.879,0.560,1.078,0.765,0.351,0.609,0.574,�k�k��,9.9,��
2022/04/13,18:40,0.587,0.878,0.558,1.074,0.763,0.351,0.609,0.572,�k,8.5,��
2022/04/13,18:50,0.588,0.876,0.558,1.072,0.764,0.352,0.607,0.572,�k,8.3,��
2022/04/13,19:00,0.589,0.878,0.557,1.074,0.762,0.351,0.608,0.573,�k,8.4,��
2022/04/13,19:10,0.589,0.876,0.558,1.074,0.764,0.351,0.608,0.571,�k,8.3,��
2022/04/13,19:20,0.589,0.877,0.559,1.074,0.764,0.353,0.608,0.571,�k,6.6,�L
2022/04/13,19:30,0.587,0.878,0.559,1.071,0.766,0.351,0.609,0.574,�k,7.4,��
2022/04/13,19:40,0.589,0.881,0.559,1.072,0.764,0.353,0.608,0.573,�k,7.6,��
2022/04/13,19:50,0.591,0.879,0.559,1.074,0.765,0.352,0.608,0.573,�k�k��,8.8,�L
2022/04/13,20:00,0.590,0.878,0.557,1.075,0.765,0.352,0.608,0.574,�k,8.1,��
2022/04/13,20:10,0.589,0.879,0.559,1.073,0.764,0.352,0.607,0.573,�k,8.5,��
2022/04/13,20:20,0.589,0.878,0.559,1.071,0.764,0.352,0.608,0.575,�k,8.2,��
2022/04/13,20:30,0.590,0.878,0.560,1.073,0.763,0.352,0.606,0.573,�k,6.4,��
2022/04/13,20:40,0.589,0.879,0.560,1.073,0.766,0.352,0.607,0.573,�k�k��,7.4,��
2022/04/13,20:50,0.588,0.881,0.560,1.073,0.763,0.351,0.606,0.573,�k�k��,6.0,��
2022/04/13,21:00,0.589,0.879,0.558,1.072,0.762,0.351,0.608,0.573,�k�k��,6.3,��
2022/04/13,21:10,0.589,0.880,0.559,1.071,0.765,0.353,0.607,0.574,�k�k��,5.4,��
2022/04/13,21:20,0.588,0.878,0.560,1.072,0.765,0.353,0.608,0.574,�k�k��,5.1,��
2022/04/13,21:30,0.590,0.878,0.557,1.075,0.767,0.351,0.608,0.575,�k�k��,5.3,��
2022/04/13,21:40,0.589,0.876,0.559,1.075,0.765,0.352,0.607,0.574,�k�k��,5.2,��
2022/04/13,21:50,0.589,0.881,0.560,1.073,0.766,0.353,0.608,0.575,�k�k��,4.6,��
2022/04/13,22:00,0.587,0.880,0.559,1.074,0.766,0.353,0.607,0.573,�k,5.4,��
2022/04/13,22:10,0.589,0.880,0.560,1.072,0.766,0.351,0.607,0.574,�k,5.6,��
2022/04/13,22:20,0.587,0.878,0.560,1.071,0.764,0.352,0.607,0.574,�k�k��,5.6,��
2022/04/13,22:30,0.589,0.881,0.559,1.074,0.766,0.351,0.607,0.575,�k�k��,5.2,��
2022/04/13,22:40,0.589,0.881,0.558,1.075,0.764,0.352,0.608,0.576,�k�k��,6.9,��
2022/04/13,22:50,0.588,0.880,0.558,1.074,0.765,0.351,0.608,0.574,�k�k��,5.1,��
2022/04/13,23:00,0.587,0.880,0.559,1.074,0.766,0.352,0.607,0.573,�k,6.0,��
2022/04/13,23:10,0.588,0.879,0.556,1.073,0.766,0.350,0.609,0.575,�k�k��,5.6,��
2022/04/13,23:20,0.590,0.881,0.559,1.072,0.765,0.351,0.607,0.573,�k�k��,5.9,��
2022/04/13,23:30,0.588,0.879,0.560,1.074,0.767,0.352,0.608,0.575,�k,5.2,��
2022/04/13,23:40,0.589,0.879,0.559,1.072,0.766,0.351,0.606,0.573,�k,4.0,��
2022/04/13,23:50,0.587,0.879,0.558,1.074,0.766,0.351,0.607,0.573,�k�k��,6.1,��
